Content
SEND FEEDBACK

Daily
Averages
Monthly
Summary
United States of America

DEDHAM, MASSACHUSETTS


Home > North America > United States > Massachusetts
Elevation: 64 feet     Latitude: 42 13N     Longitude: 071 07W

WEATHER
 
SELECT A DAY
Number of Records: 136,912;   Date Range: 10/15/98 - 12/18/14
 
SHARE

PRINT THIS DATA

[ ← Previous Day ]
WEATHER ALMANAC - FEBRUARY 28, 2013
[ Next Day → ]
[ °C ]   °F
Weather ElementAverageHighLow
Temperature36.4 °F43 °F (3:54 pm)32 °F (5:54 am)
Dewpoint33.2 °F35.1 °F (12:54 pm)30.9 °F (5:54 am)
Humidity88.5 %96 % (1:54 am)73 % (4:54 pm)
Barometer29.59 in29.66 in (8:54 am)29.54 in (11:54 pm)
Wind Speed6.3 mph12.7 mph (5:54 am)
Weather ElementAverage
Wind DirectionWSW (240 °)

Weather ElementTotal
Precipitation---
Heating Degree Days27.5 (Base 65)
Averaged from 23 records on February 28, 2013
WEATHER CONDITIONS BREAKOUT
WIND DIRECTION BREAKOUT
WEATHER BY HOUR - FEBRUARY 28, 2013
[ °C ]   °F
Local TimeTemperatureDewpointHumidityBarometerVisibilityWind DirectionWind SpeedGust SpeedPrecipitationEventsConditions
1:54 AM34.0 °F33.1 °F96 %29.60 inWest (280°)10.4 mph
2:54 AM34.0 °F33.1 °F96 %29.60 inWNW (290°)6.9 mph
3:54 AM33.1 °F32.0 °F96 %29.61 inWest (280°)6.9 mph
4:54 AM33.1 °F32.0 °F96 %29.62 inWest (280°)4.6 mph
5:54 AM32.0 °F30.9 °F96 %29.64 inWest (270°)12.7 mph
6:54 AM32.0 °F30.9 °F96 %29.63 inWest (270°)4.6 mph
7:54 AM33.1 °F32.0 °F96 %29.64 inWNW (290°)8.1 mph
8:54 AM34.0 °F32.0 °F92 %29.66 inSW (220°)4.6 mph
9:54 AM34.0 °F33.1 °F96 %29.64 inWest (280°)5.8 mph
10:54 AM35.1 °F34.0 °F96 %29.64 inSW (220°)4.6 mph
11:54 AM36.0 °F34.0 °F93 %29.63 inVariable3.5 mph
12:54 PM39.9 °F35.1 °F83 %29.59 inVariable3.5 mph
1:54 PM41.0 °F35.1 °F79 %29.58 inWNW (300°)3.5 mph
2:54 PM42.1 °F35.1 °F76 %29.56 inWNW (300°)3.5 mph
3:54 PM43.0 °F35.1 °F74 %29.55 inWNW (290°)4.6 mph
4:54 PM42.1 °F34.0 °F73 %29.56 inWNW (300°)3.5 mph
5:54 PM39.9 °F34.0 °F79 %29.56 inWNW (300°)6.9 mph
6:54 PM37.9 °F33.1 °F83 %29.56 inNW (320°)8.1 mph
7:54 PM37.9 °F33.1 °F83 %29.55 inNNW (340°)9.2 mph
8:54 PM36.0 °F32.0 °F86 %29.56 inNNW (330°)9.2 mph
9:54 PM37.0 °F33.1 °F86 %29.55 inNorth (10°)6.9 mph
10:54 PM35.1 °F33.1 °F92 %29.55 inNorth (10°)8.1 mph
11:54 PM35.1 °F33.1 °F92 %29.54 inNNW (340°)5.8 mph
Hourly data recorded from KMQE, located miles away from Dedham, Massachusetts







STORIES FROM OUR PARTNERS